Persoonlijke zone
Imprimable
Challenges > Delhalle - Amay, 14/09/2014, BEL - Le Semi-Vert d'Amay
Rapportenlijst > Delhalle - 21.1km - Resultaat
Zoek: Bladzijde: [1]
86 Inputs
 
Klachten worden niet meer geaccepteerd. Resultaten zijn definitief.
PlaatsNrNaamLeef.IOCLigaClubWerkelijkeTijdTkmGem.ScrPtsGemeente
1.15VANDERSTRAETEN PATRICK50BELVALTRAINING 71:20:251:20:253:49 15.7531106TUBIZE
2.24RECKER MARCEL53BELLACEEUPEN1:25:381:25:394:04 14.7871026AMBLEVE
3.230SANCHEZ POSADA LUIS54BELUSBWCACE1:27:151:27:154:09 14.5191001RHODE ST GENESE
4.1176DATTOLI MATTEO55BELFOULEES DU PLAISIR1:27:481:27:484:10 14.4216988
5.1120REBEIX JEAN-PHILIPPE55FRA1:29:051:29:074:14 14.2118969NANDRIN
6.1032DARTE ERIC50BELOCAN1:32:031:32:034:22 13.7527921LEUZE
7.58HENRY ANDRE54BELAG RUN TEAM1:34:181:34:194:29 13.4239883LA HULPE
8.1178KOCH MICHEL57BELNEUPRE AC1:35:051:35:074:31 13.3141871NEUPRÉ
9.1037DEGRANGE BERNARD53BEL1:35:371:35:394:32 13.2443863MODAVE
10.1031CREMER PATRICK56BELFCHA1:36:301:36:324:35 13.1252844HANNUT
11.765MATERNE DANIEL56BELUSBWMYSTERE1:36:521:36:554:36 13.0656836BRAINE-L'ALLEUD
12.1004BAECKELANDT MARCEL54BELRUN'ESRUN'ESSENCE1:37:311:37:314:38 12.9857828HERMALLE/SOUS/HUY
13.983CULLOP PAUL53BELENJAMBEE1:39:321:39:344:44 12.7267795BRUXELLES
14.848DEVIERE MICHEL51BELLA FORESTIERE1:40:441:40:504:47 12.5679771MONS
15.1135VANLANGEVELD ROGER57BEL1:41:451:41:494:50 12.4387753HUY
16.1076JUSTE CHRISTIAAN58BELL'AVENIR1:41:151:41:544:50 12.4390756BOUTERSEM
17.887AHELCHIAA MOHAMED54BELCSFMYSTERE1:42:261:42:344:52 12.3495738BRUXELLES
18.1055GILLET SERGE54BEL1:42:371:42:424:53 12.3398734
19.1147FROIDBISE JEAN-LUC53BEL1:42:371:42:484:53 12.32100732
20.1214DHOEY GEORGES53BEL1:43:171:43:174:54 12.26103722
21.531ANTENUCCI MAURO57BELESM1:44:451:44:504:59 12.08117694GOSSELIES
22.693CHAUVIER J.PIERRE54BEL1:45:321:46:005:02 11.94123680GENVAL
23.255ADAMS LUDO52BELAVN1:45:571:46:055:02 11.94125674MERKSPLAS
24.1122RIHON PAUL58BEL1:46:031:46:175:03 11.91127671GRACE HOLLOGNE
25.431MARTIN ERIC51BEL1:46:041:46:185:03 11.91128670WANDRE
26.705VANDEVENNE PATRICK51BELUSBWUSBW1:46:281:46:365:04 11.88133662WATERLOO
27.16DEVOS RENE53BELJC INCOURT1:46:281:46:555:05 11.84135660INCOURT
28.451MILLS TIMOTHY52BELRCBRCB1:47:161:47:175:06 11.80140647RIXENSART
29.1199GILLANT MICHEL54BEL1:47:571:48:115:08 11.70152630
30.1036DEFRAENE PATRICK52BELANTILOBRINNERS1:47:551:48:145:08 11.70153630NODEBAIS
31.1174DE MARCHI NICO54BEL1:49:331:49:385:12 11.55169599
32.1068HOBIN OLIVIER54BELJCPMF GRACE HOLLOGNE1:50:071:50:295:15 11.46176587GRÂCE-HOLLOGNE
33.1182LEMOS CRUZ JOSE57BEL1:50:531:51:055:16 11.40180576
34.1107PALUMBO PINO57BEL1:52:001:52:005:19 11.30187558LIEGE
35.1073HOYOIS PATRICK52BELRUN'ESSENCE1:52:431:52:435:21 11.23194545HERMALLE SOUS HUY
36.408GLEVICZKY ANDRE52BELTITAN1:52:151:53:055:22 11.20195549HEVILLERS
37.1186MOUSNY BERNARD59BEL1:53:571:54:025:25 11.10201526
38.860KRÄEMER SIEGFRIED54BELAC EIFESC BUTGENBACH1:53:591:54:255:26 11.07207521SCHÖNBERG
39.429DENEFFE PHILIPPE53BELJCHOUYET1:54:191:54:385:26 11.05208517HOUYET
40.1054GILLARD POLO55BELCICKEN RUN1:55:571:56:025:30 10.91219491VILLERS LE TEMPLE
41.1105ORBAN JEAN-PIERRE52BELCHICKEN RUN1:55:461:56:035:30 10.91221491VILLERS-LE-TEMPLE
42.1275COLLARD LUCIEN58BEL1:55:321:56:055:31 10.91222493
43.1112PIGNOLET PATRICE52BELOCAN1:55:521:56:265:32 10.87224489GESVES
44.1255FORCONI PATRICK50BEL1:57:021:57:115:34 10.80236467
45.1159EMERAUD THIERRY53BEL1:56:581:57:135:34 10.80238466
46.304GRZESINSKI BERNARD53BELSERUNNER1:57:011:57:295:35 10.78242462FLEMALLE
47.45PLOYAERT ERIC59BELWAL'COURSE1:58:191:58:525:38 10.65251442LOBBES
48.679MERCIER LUC56BELJAMESJAMES1:58:431:59:175:40 10.61255435LOUVAIN LA NEUVE
49.691JADOT PIERRE54BELESMESM1:59:041:59:405:41 10.58262426BUVRINNES
50.1141WIJNEN LUC53BELRIWA1:58:591:59:455:41 10.57264425RIXENSART
51.177HIGUET PIERRE50BELJCCS1:59:522:00:025:42 10.55268413VONECHE
52.55ROBERTI DE WINGHE MAX59BELLACERONVAU2:00:212:00:235:43 10.52276402ARCHENNES
53.561HAINAUT CHARLES55BEL2:00:412:00:545:44 10.47280396GERPINNES
54.1268CHRISTIAENS MICHEL57BEL2:00:482:01:215:46 10.43287389
55.755VAN HEULENBERGHE FRANK58BEL2:01:412:02:225:48 10.35301369GENT
56.1042DEPAYE PIERRE-YVES52BEL2:02:262:02:265:49 10.34303361HAILLOT
57.64DEWIGNE BERNARD57BELCSDY2:03:062:03:465:52 10.23313346OTTIGNIES
58.434HENROTTIN PIERRE50BEL2:03:522:04:315:55 10.17317336LIMBOURG
59.1118POLLINA GIOVANNI50ITACHICKEN RUN2:04:472:04:475:55 10.15320324VILLERS LE TEMPLE
60.1168VAN DE VYVERE JEAN51BEL2:04:402:04:495:55 10.14321324
61.1226LABYE PIERRE55BEL2:04:282:05:005:56 10.13323325
62.1225TAMAGNINI MASSIMO51BELJOG'IN ATTITUDE2:04:042:05:015:56 10.13324328
63.91GEERAERTS JOS54BELCSFMYSTERE2:04:472:05:105:56 10.12326319BUIZINGEN
64.623PISCART PIERRE54BELMOHAFORESTIERE2:05:102:05:405:58 10.08332311HAVRE
65.1024CONINGS PATRICK57BELJCPMF2:06:402:06:406:01 10.00337292VINALMONT
66.1133VANHOUTTE JOHN51BELRIWA2:06:142:06:446:01 9.99338296RIXENSART
67.709PENSIS HENRI57BELRCNAMUR2:07:072:07:396:03 9.92341285NAMUR
68.2021DOUTRELIGNE HERVÉ54BELRIWA2:08:032:08:486:07 9.83350269RIXENSART
69.1023COLSON JEAN-POL58BELSERUNNER2:09:012:09:086:08 9.80352259MARCHIN
70.192GEUSKENS JEAN MARC50BEL2:10:332:11:016:13 9.66370230BRUXELLES
71.1099MURILLO MANUEL50BELNEUPRE AC2:10:492:11:206:14 9.64371227SERAING
72.107EVRARD PIERRE53BEL2:11:042:11:396:15 9.62377220MALONNE
73.150THIROT ALAIN56BELJOGGANS2:11:222:11:436:15 9.61379216ANDERLECHT
74.23KAISIN ALAIN51BEL2:11:572:12:506:18 9.53382208FLOREFFE
75.1115PIRONNET ERIC50BEL2:17:062:17:126:31 9.23404144FLEMALLE
76.40COMANDINI LUCIANO58BELUACRRTC2:16:592:17:576:33 9.18405144MONTIGNIES-SUR-SAMBRE
77.1134VAN LAETHEM GUY51BELRIWA2:17:532:18:386:35 9.13406136RIXENSART
78.299DORVAL ROLAND51BELFCHA2:18:422:19:076:36 9.10410125MEEFFE
79.1277CRANINX PATRICK52BELWAC2:24:362:25:376:55 8.6942166
80.1250JEANNE CHRISTIAN56BEL2:24:442:25:586:56 8.6742363
81.966GRANDFILS ERIC57FRASPIBO2:30:382:31:177:11 8.3742711BELLIGNIES
82.1258BODART ALAIN52BEL2:35:092:36:007:24 8.124307
83.448ROMAIN BERNARD57BEL2:42:002:42:207:42 7.804326CHASTRE
84.127GRANDMONT ANDRE53BELARCHARCH CINEY2:43:392:44:567:49 7.684353DINANT
DNF1079LAMBERT GUY50BELANS
DNF1081LÉGAZ ALAIN50BELNEUPRÉNEUPRE ACTAVIER
DNF: abandon; DSQ: disqualifié; Vitesse en km/h
Bladzijde: [1]